Location: Fort Wayne
(41.1310°N, 85.1290°W)
Time: 07:31:06
(UTC-04:00)

Vanguard 3 - Visible Passes

Search period start: 22 May 2015 00:00
Search period end: 01 June 2015 00:00
Orbit: 509 x 3270 km, 33.3° (Epoch: 21 May)

Date Brightness Start Highest point End Pass type
(mag) Time Alt. Az. Time Alt. Az. Time Alt. Az.
23 May 11.4 04:54:17 10° SSE 04:57:48 11° SE 05:02:45 10° SE visible
24 May 11.0 05:45:30 10° S 05:58:05 23° SSE 06:08:43 10° ESE visible
25 May 11.3 04:34:48 10° SSE 04:43:12 15° SE 04:52:07 10° ESE visible
26 May 10.9 05:28:53 10° SSW 05:43:23 28° SSE 05:55:29 10° E visible
27 May 11.1 04:17:13 10° S 04:28:25 19° SE 04:39:37 10° ESE visible
28 May 11.3 03:11:02 10° SE 03:13:30 11° SE 03:18:12 10° ESE visible
28 May 10.8 05:12:38 10° SSW 05:28:31 33° SSE 05:41:55 10° E visible
29 May 11.0 04:01:10 11° S 04:13:28 23° SE 04:26:23 10° E visible
30 May 11.2 02:52:00 11° SSE 02:58:34 14° SE 03:07:43 10° ESE visible
30 May 10.6 04:56:41 10° SSW 05:13:30 37° SSE 05:28:04 10° E visible
31 May 10.9 03:47:23 16° S 03:58:22 27° SE 04:12:42 10° E visible
